StationID,Date,MaxTemp,MinTemp,Precipitation,Snowfall,SnowDepth
"USC00507141","1967-02-01",30.92,28.04,64.00,51.00,660.00
"USC00507141","1967-02-02",35.96,28.94,130.00,0.00,559.00
"USC00507141","1967-02-03",39.02,33.98,53.00,0.00,508.00
"USC00507141","1967-02-04",41.00,33.08,25.00,0.00,406.00
"USC00507141","1967-02-05",37.04,32.00,13.00,0.00,356.00
"USC00507141","1967-02-06",42.08,33.08,132.00,0.00,203.00
"USC00507141","1967-02-07",44.06,33.08,279.00,0.00,76.00
"USC00507141","1967-02-08",39.02,33.08,84.00,0.00,51.00
"USC00507141","1967-02-09",35.96,30.02,30.00,0.00,0.00
"USC00507141","1967-02-10",37.04,30.02,180.00,8.00,0.00
"USC00507141","1967-02-11",35.06,28.94,234.00,25.00,25.00
"USC00507141","1967-02-12",35.06,24.08,0.00,0.00,25.00
"USC00507141","1967-02-13",33.98,23.00,86.00,127.00,152.00
"USC00507141","1967-02-14",35.96,28.94,0.00,25.00,178.00
"USC00507141","1967-02-15",33.98,19.04,0.00,13.00,203.00
"USC00507141","1967-02-16",28.04,19.04,10.00,38.00,229.00
"USC00507141","1967-02-19",35.96,30.02,91.00,25.00,127.00
"USC00507141","1967-02-20",42.08,24.98,0.00,0.00,127.00
"USC00507141","1967-02-21",39.02,24.98,30.00,0.00,76.00
"USC00507141","1967-02-22",37.94,28.94,259.00,51.00,127.00
"USC00507141","1967-02-23",35.96,30.92,112.00,64.00,203.00
"USC00507141","1967-02-24",37.94,30.92,127.00,58.00,254.00
"USC00507141","1967-02-25",35.96,30.92,152.00,25.00,279.00
"USC00507141","1967-02-26",39.02,33.08,198.00,0.00,229.00
"USC00507141","1967-02-27",41.00,35.96,302.00,0.00,102.00
"USC00507141","1967-02-28",37.94,32.00,185.00,0.00,76.00
"USC00507141","1967-03-01",39.02,30.92,10.00,0.00,76.00
"USC00507141","1967-03-02",39.02,32.00,13.00,0.00,
"USC00507141","1967-03-03",42.08,35.06,36.00,0.00,
"USC00507141","1967-03-04",42.98,33.08,28.00,0.00,
"USC00507141","1967-03-05",39.92,30.02,3.00,0.00,
"USC00507141","1967-03-06",39.02,32.00,267.00,0.00,
"USC00507141","1967-03-07",37.04,32.00,345.00,0.00,25.00
"USC00507141","1967-03-08",44.96,28.94,18.00,0.00,0.00
"USC00507141","1967-03-09",37.04,21.92,0.00,0.00,0.00
"USC00507141","1967-03-10",33.98,24.08,0.00,0.00,0.00
"USC00507141","1967-03-11",37.04,19.04,0.00,0.00,0.00
"USC00507141","1967-03-12",37.94,24.98,0.00,0.00,0.00
"USC00507141","1967-03-13",32.00,19.94,0.00,0.00,0.00
"USC00507141","1967-03-14",33.98,21.02,0.00,0.00,0.00
"USC00507141","1967-03-15",37.04,23.00,0.00,0.00,0.00
"USC00507141","1967-03-16",37.94,26.06,0.00,0.00,0.00
"USC00507141","1967-03-17",35.96,24.98,0.00,0.00,0.00
"USC00507141","1967-03-18",39.92,28.94,0.00,0.00,0.00
"USC00507141","1967-03-19",44.06,30.02,0.00,0.00,0.00
"USC00507141","1967-03-20",39.92,24.98,0.00,0.00,0.00
"USC00507141","1967-03-21",39.02,19.94,0.00,0.00,0.00
"USC00507141","1967-03-22",37.94,24.08,0.00,0.00,0.00
"USC00507141","1967-03-23",28.04,12.92,0.00,0.00,0.00
"USC00507141","1967-03-24",24.98,10.94,0.00,0.00,0.00
"USC00507141","1967-03-25",26.96,14.00,0.00,0.00,0.00
"USC00507141","1967-03-26",28.94,17.96,8.00,30.00,25.00
"USC00507141","1967-03-27",32.00,24.98,38.00,33.00,76.00
"USC00507141","1967-03-28",42.08,28.04,15.00,36.00,25.00
"USC00507141","1967-03-29",44.06,24.08,0.00,0.00,0.00
"USC00507141","1967-03-30",44.96,23.00,0.00,0.00,0.00
"USC00507141","1967-03-31",46.04,32.00,30.00,0.00,0.00
"USC00507141","1967-04-01",42.98,35.96,64.00,0.00,0.00
"USC00507141","1967-04-02",37.04,33.08,198.00,0.00,0.00
"USC00507141","1967-04-03",46.94,33.08,0.00,0.00,0.00
"USC00507141","1967-04-04",46.94,32.00,0.00,0.00,0.00
"USC00507141","1967-04-05",42.08,35.06,23.00,0.00,0.00
"USC00507141","1967-04-06",41.00,33.08,48.00,0.00,0.00
"USC00507141","1967-04-07",41.00,33.08,124.00,0.00,0.00
"USC00507141","1967-04-08",42.08,32.00,5.00,0.00,0.00
"USC00507141","1967-04-09",46.04,30.92,33.00,0.00,0.00
"USC00507141","1967-04-10",42.98,32.00,170.00,69.00,76.00
"USC00507141","1967-04-11",37.94,32.00,188.00,64.00,76.00
"USC00507141","1967-04-12",46.04,26.06,0.00,0.00,0.00
"USC00507141","1967-04-13",48.92,26.06,0.00,0.00,0.00
"USC00507141","1967-04-14",35.06,32.00,46.00,20.00,25.00
"USC00507141","1967-04-15",46.94,32.00,0.00,0.00,0.00
"USC00507141","1967-04-16",46.04,28.04,0.00,0.00,0.00
"USC00507141","1967-04-17",51.98,30.92,0.00,0.00,0.00
"USC00507141","1967-04-18",57.92,30.02,0.00,0.00,0.00
"USC00507141","1967-04-19",59.00,30.92,0.00,0.00,0.00
"USC00507141","1967-04-20",57.02,35.06,0.00,0.00,0.00
"USC00507141","1967-04-21",46.94,35.96,20.00,0.00,0.00
"USC00507141","1967-04-22",51.08,33.98,0.00,0.00,0.00
"USC00507141","1967-04-23",53.96,35.96,0.00,0.00,0.00
"USC00507141","1967-04-24",53.06,33.08,0.00,0.00,0.00
"USC00507141","1967-04-25",57.92,35.96,0.00,0.00,0.00
"USC00507141","1967-04-26",60.08,30.92,0.00,0.00,0.00
"USC00507141","1967-04-27",57.02,30.02,0.00,0.00,0.00
"USC00507141","1967-04-28",60.08,32.00,0.00,0.00,0.00
"USC00507141","1967-04-29",66.92,33.08,0.00,0.00,0.00
"USC00507141","1967-04-30",66.02,33.08,0.00,0.00,0.00
"USC00507141","1967-05-01",64.94,30.92,0.00,0.00,0.00
"USC00507141","1967-05-02",57.02,33.98,0.00,0.00,0.00
"USC00507141","1967-05-03",53.06,39.92,0.00,0.00,0.00
"USC00507141","1967-05-04",48.02,35.06,140.00,0.00,0.00
"USC00507141","1967-05-05",48.02,37.04,48.00,0.00,0.00
"USC00507141","1967-05-06",50.00,35.96,8.00,0.00,0.00
"USC00507141","1967-05-07",59.00,41.00,0.00,0.00,0.00
"USC00507141","1967-05-08",64.94,35.06,0.00,0.00,0.00
"USC00507141","1967-05-09",68.00,41.00,0.00,0.00,0.00
"USC00507141","1967-05-10",66.02,35.96,0.00,0.00,0.00
"USC00507141","1967-05-11",64.04,41.00,0.00,0.00,0.00
"USC00507141","1967-05-12",60.08,39.92,109.00,0.00,0.00
"USC00507141","1967-05-13",59.00,41.00,112.00,0.00,0.00
"USC00507141","1967-05-14",50.00,42.08,114.00,0.00,0.00
"USC00507141","1967-05-15",55.04,39.92,58.00,0.00,0.00
"USC00507141","1967-05-16",55.94,41.00,79.00,0.00,0.00
"USC00507141","1967-05-17",46.94,39.02,196.00,0.00,0.00
"USC00507141","1967-05-18",46.94,37.04,0.00,0.00,0.00
"USC00507141","1967-05-19",59.00,39.02,20.00,0.00,0.00
"USC00507141","1967-05-20",48.02,39.02,124.00,0.00,0.00
"USC00507141","1967-05-21",51.08,39.02,38.00,0.00,0.00
"USC00507141","1967-05-22",59.00,33.08,0.00,0.00,0.00
"USC00507141","1967-05-23",55.94,41.00,36.00,0.00,0.00
"USC00507141","1967-05-24",50.00,37.94,33.00,0.00,0.00
"USC00507141","1967-05-25",60.08,35.96,0.00,0.00,0.00
"USC00507141","1967-05-26",57.02,42.08,8.00,0.00,0.00
"USC00507141","1967-05-27",53.96,42.08,122.00,0.00,0.00
"USC00507141","1967-05-28",60.98,35.96,0.00,0.00,0.00
"USC00507141","1967-05-29",62.06,41.00,0.00,0.00,0.00
"USC00507141","1967-05-30",59.00,42.98,0.00,0.00,0.00
"USC00507141","1967-05-31",64.04,44.96,48.00,0.00,0.00
"USC00507141","1967-06-01",51.98,42.98,23.00,0.00,0.00
"USC00507141","1967-06-02",55.94,46.04,0.00,0.00,0.00
"USC00507141","1967-06-03",60.08,44.96,0.00,0.00,0.00
"USC00507141","1967-06-04",57.92,44.96,0.00,0.00,0.00
"USC00507141","1967-06-05",55.04,44.06,13.00,0.00,0.00
"USC00507141","1967-06-06",50.00,44.96,3.00,0.00,0.00
"USC00507141","1967-06-07",53.96,44.96,0.00,0.00,0.00
"USC00507141","1967-06-08",60.98,44.96,0.00,0.00,0.00
"USC00507141","1967-06-09",62.96,46.04,13.00,0.00,0.00
"USC00507141","1967-06-10",59.00,48.02,15.00,0.00,0.00
"USC00507141","1967-06-11",64.94,44.06,0.00,0.00,0.00
"USC00507141","1967-06-12",66.02,44.06,0.00,0.00,0.00
"USC00507141","1967-06-13",66.02,44.06,53.00,0.00,0.00
"USC00507141","1967-06-14",59.00,46.04,51.00,0.00,0.00
"USC00507141","1967-06-15",59.00,44.96,3.00,0.00,0.00
"USC00507141","1967-06-16",64.04,41.00,0.00,0.00,0.00
"USC00507141","1967-06-17",82.94,48.02,0.00,0.00,0.00
"USC00507141","1967-06-18",66.92,51.08,5.00,0.00,0.00
"USC00507141","1967-06-19",64.04,51.08,3.00,0.00,0.00
"USC00507141","1967-06-20",62.06,51.08,0.00,0.00,0.00
"USC00507141","1967-06-21",55.94,50.00,0.00,0.00,0.00
"USC00507141","1967-06-22",60.98,50.00,0.00,0.00,0.00
"USC00507141","1967-06-23",64.94,48.92,0.00,0.00,0.00
"USC00507141","1967-06-24",66.02,51.08,0.00,0.00,0.00
"USC00507141","1967-06-25",57.92,50.00,30.00,0.00,0.00
"USC00507141","1967-06-26",59.00,51.08,0.00,0.00,0.00
"USC00507141","1967-06-27",55.04,46.04,279.00,0.00,0.00
"USC00507141","1967-06-28",55.04,46.04,86.00,0.00,0.00
"USC00507141","1967-06-29",57.92,46.04,97.00,0.00,0.00
"USC00507141","1967-06-30",53.96,46.94,25.00,0.00,0.00
"USC00507141","1967-07-01",62.96,46.04,8.00,0.00,0.00
"USC00507141","1967-07-02",62.06,48.92,3.00,0.00,0.00
"USC00507141","1967-07-03",55.04,44.06,112.00,0.00,0.00
"USC00507141","1967-07-04",59.00,48.02,13.00,0.00,0.00
"USC00507141","1967-07-05",57.02,46.94,267.00,0.00,0.00
"USC00507141","1967-07-06",53.96,41.00,30.00,0.00,0.00
"USC00507141","1967-07-07",62.06,42.98,5.00,0.00,0.00
"USC00507141","1967-07-08",60.08,46.94,48.00,0.00,0.00
"USC00507141","1967-07-09",59.00,50.00,38.00,0.00,0.00
"USC00507141","1967-07-10",62.96,48.92,94.00,0.00,0.00
"USC00507141","1967-07-11",64.04,50.00,13.00,0.00,0.00
"USC00507141","1967-07-12",71.06,46.04,5.00,0.00,0.00
"USC00507141","1967-07-13",60.08,48.92,99.00,0.00,0.00
"USC00507141","1967-07-14",62.96,48.02,23.00,0.00,0.00
"USC00507141","1967-07-15",57.92,48.92,3.00,0.00,0.00
"USC00507141","1967-07-16",60.98,48.02,8.00,0.00,0.00
"USC00507141","1967-07-17",62.96,46.04,0.00,0.00,0.00
"USC00507141","1967-07-18",60.08,46.04,10.00,0.00,0.00
"USC00507141","1967-07-19",62.06,48.92,5.00,0.00,0.00
"USC00507141","1967-07-20",60.98,50.00,3.00,0.00,0.00
"USC00507141","1967-07-21",64.04,50.00,104.00,0.00,0.00
"USC00507141","1967-07-22",64.94,51.08,5.00,0.00,0.00
"USC00507141","1967-07-23",66.02,44.96,0.00,0.00,0.00
"USC00507141","1967-07-24",69.08,51.98,0.00,0.00,0.00
"USC00507141","1967-07-25",69.08,53.06,0.00,0.00,0.00
"USC00507141","1967-07-26",60.98,53.96,122.00,0.00,0.00
"USC00507141","1967-07-27",57.92,50.00,74.00,0.00,0.00
"USC00507141","1967-07-28",66.02,48.92,91.00,0.00,0.00
"USC00507141","1967-07-29",64.04,51.98,5.00,0.00,0.00
"USC00507141","1967-07-30",60.08,51.98,5.00,0.00,0.00
"USC00507141","1967-07-31",59.00,51.08,74.00,0.00,0.00
"USC00507141","1967-08-01",57.92,53.96,140.00,0.00,0.00
"USC00507141","1967-08-02",60.98,51.98,8.00,0.00,0.00
"USC00507141","1967-08-03",66.02,46.94,0.00,0.00,0.00
"USC00507141","1967-08-04",68.00,51.08,0.00,0.00,0.00
"USC00507141","1967-08-05",64.94,50.00,0.00,0.00,0.00
"USC00507141","1967-08-06",68.00,50.00,0.00,0.00,0.00
"USC00507141","1967-08-07",64.04,53.96,218.00,0.00,0.00
"USC00507141","1967-08-08",60.08,53.96,272.00,0.00,0.00
"USC00507141","1967-08-09",57.92,51.98,64.00,0.00,0.00
"USC00507141","1967-08-10",57.02,50.00,384.00,0.00,0.00
"USC00507141","1967-08-11",59.00,50.00,56.00,0.00,0.00
"USC00507141","1967-08-12",66.92,53.06,0.00,0.00,0.00
"USC00507141","1967-08-13",62.06,51.98,15.00,0.00,0.00
"USC00507141","1967-08-14",60.98,51.08,30.00,0.00,0.00
"USC00507141","1967-08-15",62.06,51.98,8.00,0.00,0.00
"USC00507141","1967-08-16",66.02,46.04,0.00,0.00,0.00
"USC00507141","1967-08-17",69.08,48.02,0.00,0.00,0.00
"USC00507141","1967-08-18",60.98,53.96,224.00,0.00,0.00
"USC00507141","1967-08-19",62.06,51.98,401.00,0.00,0.00
"USC00507141","1967-08-20",59.00,51.08,452.00,0.00,0.00
"USC00507141","1967-08-21",55.94,50.00,224.00,0.00,0.00
"USC00507141","1967-08-22",57.92,42.98,38.00,0.00,0.00
"USC00507141","1967-08-23",62.06,42.08,0.00,0.00,0.00
"USC00507141","1967-08-24",60.98,50.00,348.00,0.00,0.00
"USC00507141","1967-08-25",57.02,51.08,612.00,0.00,0.00
"USC00507141","1967-08-26",57.02,51.08,178.00,0.00,0.00
"USC00507141","1967-08-27",69.08,46.94,0.00,0.00,0.00
"USC00507141","1967-08-28",62.96,48.92,5.00,0.00,0.00
"USC00507141","1967-08-29",73.04,51.98,13.00,0.00,0.00
"USC00507141","1967-08-30",69.98,55.94,127.00,0.00,0.00
"USC00507141","1967-08-31",59.00,53.06,295.00,0.00,0.00
"USC00507141","1967-09-01",57.02,51.08,605.00,0.00,0.00
"USC00507141","1967-09-02",55.04,50.00,488.00,0.00,0.00
"USC00507141","1967-09-03",55.94,50.00,5.00,0.00,0.00
"USC00507141","1967-09-04",57.92,50.00,38.00,0.00,0.00
"USC00507141","1967-09-05",55.94,50.00,180.00,0.00,0.00
"USC00507141","1967-09-06",57.02,51.08,114.00,0.00,0.00
"USC00507141","1967-09-07",55.94,51.98,323.00,0.00,0.00
"USC00507141","1967-09-08",55.94,46.94,224.00,0.00,0.00
"USC00507141","1967-09-09",57.02,46.94,102.00,0.00,0.00
"USC00507141","1967-09-10",60.08,39.02,0.00,0.00,0.00
"USC00507141","1967-09-11",64.04,46.04,198.00,0.00,0.00
"USC00507141","1967-09-12",57.02,48.02,645.00,0.00,0.00
"USC00507141","1967-09-13",55.04,50.00,439.00,0.00,0.00
"USC00507141","1967-09-14",59.00,51.98,1687.00,0.00,0.00
"USC00507141","1967-09-15",55.94,44.96,168.00,0.00,0.00
"USC00507141","1967-09-16",66.02,48.92,0.00,0.00,0.00
"USC00507141","1967-09-17",68.00,48.92,305.00,0.00,0.00
"USC00507141","1967-09-18",53.06,46.94,432.00,0.00,0.00
"USC00507141","1967-09-19",50.00,44.96,353.00,0.00,0.00
"USC00507141","1967-09-20",55.04,41.00,0.00,0.00,0.00
"USC00507141","1967-09-21",55.04,44.06,20.00,0.00,0.00
"USC00507141","1967-09-22",51.98,46.04,427.00,0.00,0.00
"USC00507141","1967-09-23",53.96,44.06,91.00,0.00,0.00
"USC00507141","1967-09-24",55.04,42.08,114.00,0.00,0.00
"USC00507141","1967-09-25",53.06,46.04,340.00,0.00,0.00
"USC00507141","1967-09-26",53.06,44.96,328.00,0.00,0.00
"USC00507141","1967-09-27",53.96,39.92,30.00,0.00,0.00
"USC00507141","1967-09-28",53.96,42.08,0.00,0.00,0.00
"USC00507141","1967-09-29",55.04,37.94,0.00,0.00,0.00
"USC00507141","1967-09-30",64.04,42.98,0.00,0.00,0.00
"USC00507141","1967-10-01",64.04,42.98,0.00,0.00,0.00
"USC00507141","1967-10-02",62.06,42.08,0.00,0.00,0.00
"USC00507141","1967-10-03",57.92,41.00,0.00,0.00,0.00
"USC00507141","1967-10-04",50.00,39.92,0.00,0.00,0.00
"USC00507141","1967-10-05",55.94,42.08,0.00,0.00,0.00
"USC00507141","1967-10-06",50.00,37.04,0.00,0.00,0.00
"USC00507141","1967-10-07",55.94,39.92,58.00,0.00,0.00
"USC00507141","1967-10-08",53.06,44.06,564.00,0.00,0.00
"USC00507141","1967-10-09",55.04,44.06,272.00,0.00,0.00
"USC00507141","1967-10-10",51.08,44.96,53.00,0.00,0.00
"USC00507141","1967-10-11",51.08,44.96,48.00,0.00,0.00
"USC00507141","1967-10-12",48.92,42.98,51.00,0.00,0.00
"USC00507141","1967-10-13",50.00,44.06,290.00,0.00,0.00
"USC00507141","1967-10-14",48.02,35.96,536.00,0.00,0.00
"USC00507141","1967-10-15",46.04,37.04,140.00,0.00,0.00
"USC00507141","1967-10-16",44.96,35.96,130.00,0.00,0.00
"USC00507141","1967-10-17",44.06,35.96,142.00,0.00,0.00
"USC00507141","1967-10-18",51.98,37.04,180.00,0.00,0.00
"USC00507141","1967-10-19",44.96,39.02,546.00,0.00,0.00
"USC00507141","1967-10-20",42.98,39.02,183.00,0.00,0.00
"USC00507141","1967-10-21",44.06,37.94,102.00,0.00,0.00
"USC00507141","1967-10-22",42.98,35.06,81.00,0.00,0.00
"USC00507141","1967-10-23",44.96,35.06,226.00,0.00,0.00
"USC00507141","1967-10-24",44.06,37.94,147.00,0.00,0.00
"USC00507141","1967-10-25",44.06,37.94,155.00,0.00,0.00
"USC00507141","1967-10-26",46.04,37.94,175.00,0.00,0.00
"USC00507141","1967-10-27",42.98,39.02,140.00,0.00,0.00
"USC00507141","1967-10-28",44.96,39.02,137.00,0.00,0.00
"USC00507141","1967-10-29",44.96,37.94,302.00,0.00,0.00
"USC00507141","1967-10-30",44.96,33.98,279.00,0.00,0.00
"USC00507141","1967-10-31",42.08,30.02,0.00,0.00,0.00
"USC00507141","1967-11-01",37.94,30.92,5.00,0.00,0.00
"USC00507141","1967-11-02",39.92,35.06,20.00,0.00,0.00
"USC00507141","1967-11-03",42.98,37.94,3.00,0.00,0.00
"USC00507141","1967-11-04",44.06,35.06,0.00,0.00,0.00
"USC00507141","1967-11-05",41.00,35.06,305.00,0.00,0.00
"USC00507141","1967-11-06",46.94,39.02,259.00,0.00,0.00
"USC00507141","1967-11-07",44.06,39.02,132.00,0.00,0.00
"USC00507141","1967-11-08",44.06,32.00,3.00,0.00,0.00
"USC00507141","1967-11-09",41.00,28.94,0.00,0.00,0.00
"USC00507141","1967-11-10",37.04,30.02,0.00,0.00,0.00
"USC00507141","1967-11-11",37.04,30.02,0.00,0.00,0.00
"USC00507141","1967-11-12",37.94,30.92,0.00,0.00,0.00
"USC00507141","1967-11-13",,,,0.00,0.00
"USC00507141","1967-11-14",,,,0.00,0.00
"USC00507141","1967-11-15",37.94,32.00,,0.00,0.00
"USC00507141","1967-11-16",42.98,33.98,,0.00,0.00
"USC00507141","1967-11-17",41.00,30.02,13.00,0.00,0.00
"USC00507141","1967-11-18",46.04,35.96,490.00,0.00,0.00
"USC00507141","1967-11-19",46.94,42.98,107.00,0.00,0.00
"USC00507141","1967-11-20",48.92,42.98,239.00,0.00,0.00
"USC00507141","1967-11-21",48.92,42.98,358.00,0.00,0.00
"USC00507141","1967-11-22",46.04,33.98,617.00,0.00,0.00
"USC00507141","1967-11-23",42.98,26.96,394.00,51.00,51.00
"USC00507141","1967-11-24",42.08,21.02,0.00,0.00,51.00
"USC00507141","1967-11-25",28.04,19.94,0.00,0.00,51.00
"USC00507141","1967-11-26",30.02,21.92,0.00,0.00,51.00
"USC00507141","1967-11-27",35.06,26.96,264.00,152.00,203.00
"USC00507141","1967-11-28",35.06,28.04,36.00,0.00,152.00
"USC00507141","1967-11-29",33.98,23.00,0.00,0.00,152.00
"USC00507141","1967-11-30",28.94,23.00,20.00,8.00,178.00
"USC00507141","1967-12-01",32.00,26.96,33.00,30.00,229.00
"USC00507141","1967-12-02",39.02,28.94,122.00,13.00,229.00
"USC00507141","1967-12-03",35.06,32.00,84.00,122.00,356.00
"USC00507141","1967-12-04",35.06,26.96,30.00,30.00,356.00
"USC00507141","1967-12-05",33.08,26.96,0.00,0.00,356.00
"USC00507141","1967-12-06",37.04,30.02,0.00,0.00,356.00
"USC00507141","1967-12-07",37.04,33.08,119.00,0.00,254.00
"USC00507141","1967-12-08",37.94,33.08,221.00,0.00,229.00
"USC00507141","1967-12-09",37.94,30.02,196.00,23.00,254.00
"USC00507141","1967-12-10",33.98,30.02,300.00,152.00,406.00
"USC00507141","1967-12-11",35.96,32.00,5.00,0.00,330.00
"USC00507141","1967-12-12",37.94,35.06,10.00,0.00,178.00
"USC00507141","1967-12-13",39.02,35.96,485.00,0.00,102.00
"USC00507141","1967-12-14",37.04,35.06,262.00,0.00,0.00
"USC00507141","1967-12-15",41.00,33.08,86.00,5.00,0.00
"USC00507141","1967-12-16",35.06,26.96,30.00,20.00,25.00
"USC00507141","1967-12-17",33.08,24.98,0.00,0.00,25.00
"USC00507141","1967-12-18",30.02,19.94,0.00,0.00,25.00
"USC00507141","1967-12-19",26.96,19.94,0.00,0.00,0.00
"USC00507141","1967-12-20",28.04,19.94,0.00,0.00,0.00
"USC00507141","1967-12-21",26.96,21.02,0.00,0.00,0.00
"USC00507141","1967-12-22",30.92,24.08,0.00,20.00,25.00
"USC00507141","1967-12-23",33.98,28.94,18.00,5.00,25.00
"USC00507141","1967-12-24",35.96,28.94,0.00,0.00,0.00
"USC00507141","1967-12-25",39.92,30.02,127.00,0.00,0.00
"USC00507141","1967-12-26",41.00,35.06,185.00,0.00,0.00
"USC00507141","1967-12-27",39.92,33.98,0.00,0.00,0.00
"USC00507141","1967-12-28",37.94,33.08,0.00,0.00,0.00
"USC00507141","1967-12-29",39.02,35.06,20.00,0.00,0.00
"USC00507141","1967-12-30",39.92,35.06,107.00,0.00,0.00
"USC00507141","1967-12-31",39.92,28.94,0.00,0.00,0.00
"USC00507141","1968-01-01",33.08,26.96,0.00,0.00,0.00
"USC00507141","1968-01-02",39.02,32.00,234.00,5.00,0.00
"USC00507141","1968-01-03",35.06,24.98,81.00,25.00,25.00
"USC00507141","1968-01-04",30.92,24.08,0.00,0.00,0.00
"USC00507141","1968-01-05",35.06,30.02,107.00,102.00,102.00
"USC00507141","1968-01-06",33.98,24.98,0.00,0.00,102.00
"USC00507141","1968-01-07",32.00,23.00,0.00,0.00,102.00
"USC00507141","1968-01-08",28.04,21.02,0.00,0.00,102.00
"USC00507141","1968-01-09",30.02,19.94,0.00,0.00,76.00
"USC00507141","1968-01-10",26.06,12.02,0.00,0.00,76.00
"USC00507141","1968-01-11",17.06,8.06,0.00,0.00,76.00
"USC00507141","1968-01-12",17.06,8.96,0.00,0.00,76.00
"USC00507141","1968-01-13",24.08,15.08,43.00,5.00,76.00
"USC00507141","1968-01-14",28.04,21.92,46.00,61.00,127.00
"USC00507141","1968-01-15",35.06,26.06,79.00,48.00,178.00
"USC00507141","1968-01-16",33.08,28.04,43.00,69.00,229.00
"USC00507141","1968-01-17",33.98,28.94,,94.00,330.00
"USC00507141","1968-01-18",33.98,28.04,,254.00,584.00
"USC00507141","1968-01-19",37.04,30.02,,185.00,737.00
"USC00507141","1968-01-20",35.06,28.94,,61.00,787.00
"USC00507141","1968-01-21",44.06,30.02,419.00,0.00,610.00
"USC00507141","1968-01-22",44.96,33.98,353.00,0.00,229.00
"USC00507141","1968-01-23",37.94,30.92,218.00,104.00,356.00
"USC00507141","1968-01-24",37.94,21.02,,15.00,356.00
"USC00507141","1968-01-25",28.04,15.98,0.00,0.00,330.00
"USC00507141","1968-01-26",35.06,12.92,23.00,46.00,381.00
"USC00507141","1968-01-27",37.94,28.04,0.00,0.00,381.00
"USC00507141","1968-01-28",37.94,23.00,0.00,0.00,381.00
"USC00507141","1968-01-29",33.08,15.98,0.00,0.00,330.00
"USC00507141","1968-01-30",19.04,-2.02,0.00,0.00,330.00
"USC00507141","1968-01-31",1.94,-2.02,0.00,0.00,330.00
"USC00507141","1968-02-01",6.08,-0.94,0.00,0.00,330.00
"USC00507141","1968-02-02",12.92,3.02,0.00,0.00,330.00
"USC00507141","1968-02-03",15.98,10.04,180.00,117.00,483.00
"USC00507141","1968-02-04",30.92,15.08,41.00,51.00,508.00
"USC00507141","1968-02-05",41.00,28.04,973.00,0.00,508.00
"USC00507141","1968-02-06",42.98,37.94,236.00,0.00,356.00
"USC00507141","1968-02-07",44.96,35.96,0.00,0.00,229.00
"USC00507141","1968-02-08",42.98,37.04,541.00,0.00,127.00
"USC00507141","1968-02-09",39.92,33.08,25.00,0.00,0.00
"USC00507141","1968-02-10",44.96,28.94,0.00,0.00,0.00
"USC00507141","1968-02-11",39.92,26.96,0.00,0.00,0.00
"USC00507141","1968-02-12",41.00,26.06,0.00,0.00,0.00
"USC00507141","1968-02-13",42.08,26.06,0.00,0.00,0.00
"USC00507141","1968-02-14",44.06,26.96,0.00,0.00,0.00
"USC00507141","1968-02-15",41.00,26.06,0.00,0.00,0.00
"USC00507141","1968-02-16",41.00,26.06,0.00,0.00,0.00
"USC00507141","1968-02-17",39.92,26.06,0.00,0.00,0.00
"USC00507141","1968-02-18",35.96,28.94,0.00,0.00,0.00
"USC00507141","1968-02-19",37.04,28.04,61.00,86.00,0.00
"USC00507141","1968-02-20",41.00,35.06,122.00,0.00,0.00
"USC00507141","1968-02-21",42.08,35.06,302.00,0.00,0.00
"USC00507141","1968-02-22",37.94,35.06,203.00,0.00,0.00
"USC00507141","1968-02-23",44.96,28.94,0.00,0.00,0.00
"USC00507141","1968-02-24",41.00,33.08,97.00,0.00,0.00
"USC00507141","1968-02-25",46.04,37.04,213.00,0.00,0.00
"USC00507141","1968-02-26",48.02,44.06,528.00,0.00,0.00
"USC00507141","1968-02-27",51.98,35.06,56.00,0.00,0.00
"USC00507141","1968-02-28",46.94,35.96,38.00,0.00,0.00
"USC00507141","1968-02-29",51.08,39.92,48.00,0.00,0.00
"USC00507141","1968-03-01",44.96,37.94,269.00,0.00,0.00
"USC00507141","1968-03-02",42.98,37.04,109.00,0.00,0.00
"USC00507141","1968-03-03",41.00,39.02,56.00,0.00,0.00
"USC00507141","1968-03-04",42.08,37.94,122.00,0.00,0.00
"USC00507141","1968-03-05",41.00,35.06,0.00,0.00,0.00
"USC00507141","1968-03-06",44.96,33.98,0.00,0.00,0.00
"USC00507141","1968-03-07",42.08,37.04,3.00,0.00,0.00
"USC00507141","1968-03-08",44.96,37.94,0.00,0.00,0.00
"USC00507141","1968-03-09",50.00,35.96,5.00,0.00,0.00
"USC00507141","1968-03-10",46.94,37.94,25.00,0.00,0.00
"USC00507141","1968-03-11",46.94,33.08,0.00,0.00,0.00
"USC00507141","1968-03-12",46.94,28.94,64.00,10.00,0.00
"USC00507141","1968-03-13",46.04,26.06,0.00,0.00,0.00
"USC00507141","1968-03-14",46.04,26.06,0.00,0.00,0.00
"USC00507141","1968-03-15",44.96,26.06,0.00,0.00,0.00
"USC00507141","1968-03-16",35.96,24.08,36.00,48.00,51.00
"USC00507141","1968-03-17",28.94,24.08,81.00,155.00,203.00
"USC00507141","1968-03-18",35.96,28.94,127.00,132.00,279.00
"USC00507141","1968-03-19",39.02,32.00,526.00,0.00,0.00
"USC00507141","1968-03-20",44.96,37.94,119.00,0.00,0.00
"USC00507141","1968-03-21",42.98,35.06,198.00,0.00,0.00
"USC00507141","1968-03-22",41.00,32.00,124.00,0.00,0.00
"USC00507141","1968-03-23",44.06,26.96,3.00,0.00,0.00
"USC00507141","1968-03-24",39.92,30.02,10.00,0.00,0.00
"USC00507141","1968-03-25",39.92,32.00,23.00,0.00,0.00
"USC00507141","1968-03-26",39.92,32.00,135.00,20.00,0.00
"USC00507141","1968-03-27",39.02,33.08,46.00,0.00,0.00
"USC00507141","1968-03-28",41.00,33.08,56.00,0.00,0.00
"USC00507141","1968-03-29",41.00,28.04,5.00,0.00,0.00
"USC00507141","1968-03-30",48.92,26.06,0.00,0.00,0.00
"USC00507141","1968-03-31",48.92,28.04,0.00,0.00,0.00
"USC00507141","1968-04-01",50.00,32.00,46.00,0.00,0.00
"USC00507141","1968-04-02",46.94,33.08,79.00,0.00,0.00
"USC00507141","1968-04-03",42.98,35.06,0.00,0.00,0.00